Regional Weather Roundup
Issued by NWS

Home | Current Version | Previous Version | Text Only | Print | Product List | Glossary Off
Versions: 1 2 3 4 5 6 7 8 9 10 11 12 13 14 15 16 17 18 19 20 21 22 23 24 25 26 27 28 29 30 31 32 33 34 35 36 37 38 39 40 41 42 43 44 45 46 47 48 49 50

000
ASUS43 KLOT 230908
RWRIL

ILLINOIS REGIONAL WEATHER ROUNDUP
NATIONAL WEATHER SERVICE CHICAGO/ROMEOVILLE IL
300 AM CST THU NOV 23 2017

NOTE: "FAIR" INDICATES FEW OR NO CLOUDS BELOW 12,000 FEET WITH NO
SIGNIFICANT WEATHER AND/OR OBSTRUCTIONS TO VISIBILITY.

* THESE STATIONS ARE NOT UNDER NWS QUALITY CONTROL. THEY ALSO MAY NOT
  REPORT WEATHER SUCH AS PRECIPITATION OR FOG.

ILZ001-002-007-009-015-016-024-231000-
NORTHWEST ILLINOIS

CITY           SKY/WX    TMP DP  RH WIND       PRES   REMARKS
MOLINE         CLOUDY    35  18  49 S8        30.06F WCI  29
STERLING*      CLOUDY    33  22  63 VRB6      30.08F WCI  28
SAVANNA*       CLOUDY    33  20  60 S13       30.04F WCI  23
$$

ILZ003-004-008-010-011-017-018-231000-
NORTH CENTRAL ILLINOIS

CITY           SKY/WX    TMP DP  RH WIND       PRES   REMARKS
ROCKFORD       CLOUDY    32  23  69 S12       30.08F WCI  23
FREEPORT*      CLOUDY    32  20  60 S15       30.05F WCI  22
ROCHELLE*      CLOUDY    31  23  72 S13       30.08F WCI  22
DE KALB*       CLOUDY    31  24  74 S12       30.08F WCI  22
PERU*          CLOUDY    31  22  68 S7        30.12F WCI  24
$$

ILZ005-006-012>014-019>023-231000-
NORTHEAST ILLINOIS

CITY           SKY/WX    TMP DP  RH WIND       PRES   REMARKS
CHICAGO-OHARE  CLOUDY    33  18  53 SW9       30.10F WCI  25
CHICAGO-MIDWAY CLOUDY    33  20  58 SW10      30.12F WCI  25
AURORA         CLOUDY    32  21  64 S9        30.11F WCI  24
LANSING*       CLOUDY    32  24  72 S8        30.14F WCI  24
JOLIET*        CLOUDY    33  22  64 SW6       30.14F WCI  27
WAUKEGAN       CLOUDY    32  19  58 SW13      30.08F WCI  22
DUPAGE AIRPORT CLOUDY    31  21  66 S10       30.10F WCI  22
KANKAKEE*      CLOUDY    32  22  65 S7        30.16F WCI  26
WHEELING       CLOUDY    33  19  56 SW8       30.12F WCI  26
MORRIS*        CLOUDY    32  23  69 S8        30.13F WCI  25
ROMEOVILLE*    CLOUDY    32  21  64 SW8       30.12F WCI  24
NORTHERLY ISL    N/A     33  17  52 SE9         N/A  WCI  25
$$

LMZ740>746-231000-
SOUTHERN LAKE MICHIGAN

STATION/POSITION SKY/WX   TEMP    WIND        PRES    VSBY  WAVE
                          AIR SEA DIR/SP/G                  HT/PER
                          (F)     (DEG/KT/KT) (MB)    (MI)  (FT/S)
SOUTHERN BUOY              36 47  270/ 17/ 21 1020.5          3/ 5
HARRISON CRIB              34     210/ 14/ 17   N/A
BURNHAM HARBOR             33     190/  8/ 10   N/A
CALUMET HARBOR             33     190/  8/ 12 1019.7F
BURNS HARBOR               32     190/  8/ 10 1021.3F
MICHIGAN CITY              31     180/  9/ 10   N/A
$$

ILZ025>027-034>036-040-047-049-050-058-095>099-231000-
WEST-CENTRAL ILLINOIS

CITY           SKY/WX    TMP DP  RH WIND       PRES   REMARKS
QUINCY         CLOUDY    32  18  56 S9        30.11F WCI  24
GALESBURG*     CLOUDY    33  23  66 S10       30.09F WCI  25
MACOMB*        CLOUDY    32  23  69 S8        30.13F WCI  25
JACKSONVILLE*  CLOUDY    32  22  65 S8        30.15F WCI  25
PITTSFIELD*    CLOUDY    32  21  65 S7        30.15F WCI  26
$$

ILZ028>032-037-038-041>044-048-051>054-059>061-231000-
CENTRAL ILLINOIS

CITY           SKY/WX    TMP DP  RH WIND       PRES   REMARKS
PONTIAC        CLOUDY    32  24  71 S9        30.15F WCI  24
BLOOMINGTON    CLOUDY    30  23  75 S9        30.15F WCI  22
DECATUR        CLEAR     28  21  75 S8        30.18F WCI  20
PEORIA         CLOUDY    32  22  66 S12       30.13F WCI  23
LACON*         CLOUDY    33  20  58 SW8       30.12F WCI  26
LINCOLN*       CLOUDY    31  25  79 S8        30.16F WCI  24
SPRINGFIELD    CLOUDY    32  23  69 S7        30.17F WCI  26
TAYLORVILLE    CLOUDY    29  22  75 S7        30.19F WCI  22
$$

ILZ033-039-045-046-055>057-062-063-231000-
EAST-CENTRAL ILLINOIS

CITY           SKY/WX    TMP DP  RH WIND       PRES   REMARKS
CHAMPAIGN      CLOUDY    30  24  78 S7        30.18F WCI  23
DANVILLE*      CLOUDY    30  24  78 S3        30.16F
RANTOUL*       CLOUDY    33  26  77 SW3       30.17F
MATTOON        CLOUDY    30  21  69 S6        30.18F WCI  24
PARIS*         CLOUDY    30  28  92 S5        30.21F WCI  25
$$

ILZ079-100>102-231000-
SOUTHWEST ILLINOIS

CITY           SKY/WX    TMP DP  RH WIND       PRES   REMARKS
ALTON          CLOUDY    29  24  84 SE5       30.19F WCI  24
BELLEVILLE     CLOUDY    29  23  76 SE3       30.19F
CAHOKIA*       MOCLDY    28  21  75 CALM      30.20F
SPARTA*        CLOUDY    32  27  83 CALM      30.22S
$$

ILZ064>066-069>071-074>076-080>082-084>086-088>090-092>094-231000-
SOUTH-CENTRAL ILLINOIS

CITY           SKY/WX    TMP DP  RH WIND       PRES   REMARKS
CARBONDALE     CLOUDY    27  26  96 CALM      30.23S
CAIRO*         CLOUDY    27  25  91 CALM      30.23S
EFFINGHAM*     CLOUDY    28  27  94 CALM      30.23S
MARION         CLOUDY    29  28  98 CALM      30.22F
MT. VERNON     CLOUDY    27  25  92 CALM      30.22F
CENTRALIA*     MOCLDY    30  28  91 SE3       30.20F
SALEM*         CLOUDY    32  23  70 SE3       30.21S
METROPOLIS*    CLOUDY    26  22  85 CALM      30.23S
$$

ILZ067-068-072-073-078-083-087-091-231000-
SOUTHEAST ILLINOIS

CITY           SKY/WX    TMP DP  RH WIND       PRES   REMARKS
LAWRENCEVILLE  CLOUDY    30  25  81 CALM      30.22F
FLORA*         CLOUDY    29  26  86 CALM      30.23S
FAIRFIELD*     CLOUDY    28  25  91 CALM      30.22S
HARRISBURG*    CLOUDY    27  25  91 SE3       30.22F
ROBINSON*      CLOUDY    28  26  93 CALM      30.23F
CARMI*         CLOUDY    26  24  91 CALM      30.21F
$$

ABBREVIATIONS USED IN REMARKS
   TC - TEMPERATURE IN CELSIUS
  WCI - WIND CHILL INDEX
   HX - HEAT INDEX
  VSB - VISIBILITY
$$





USA.gov is the U.S. government's official web portal to all federal, state and local government web resources and services.